TimeCST,TemperatureF,Dew PointF,Humidity,Sea Level PressureIn,VisibilityMPH,Wind Direction,Wind SpeedMPH,Gust SpeedMPH,PrecipitationIn,Events,Conditions,WindDirDegrees,DateUTC
12:15 AM,28.4,24.8,86,30.22,10.0,Calm,Calm,-,N/A,,Overcast,0,2012-11-05 06:15:00
12:35 AM,28.4,26.6,93,30.22,10.0,Calm,Calm,-,N/A,,Overcast,0,2012-11-05 06:35:00
12:55 AM,30.2,26.6,86,30.23,10.0,East,3.5,-,N/A,,Overcast,100,2012-11-05 06:55:00
1:15 AM,30.2,24.8,80,30.22,10.0,Calm,Calm,-,N/A,,Overcast,0,2012-11-05 07:15:00
1:35 AM,30.2,24.8,80,30.22,10.0,ENE,3.5,-,N/A,,Overcast,60,2012-11-05 07:35:00
1:55 AM,30.2,23.0,75,30.23,10.0,NE,3.5,-,N/A,,Mostly Cloudy,50,2012-11-05 07:55:00
2:15 AM,30.2,23.0,75,30.23,10.0,Calm,Calm,-,N/A,,Mostly Cloudy,0,2012-11-05 08:15:00
2:35 AM,30.2,24.8,80,30.22,10.0,ENE,3.5,-,N/A,,Overcast,60,2012-11-05 08:35:00
2:55 AM,30.2,24.8,80,30.22,10.0,Calm,Calm,-,N/A,,Overcast,0,2012-11-05 08:55:00
3:15 AM,30.2,24.8,80,30.21,10.0,Calm,Calm,-,N/A,,Overcast,0,2012-11-05 09:15:00
3:35 AM,30.2,24.8,80,30.22,10.0,Calm,Calm,-,N/A,,Overcast,0,2012-11-05 09:35:00
3:55 AM,30.2,24.8,80,30.22,10.0,East,4.6,-,N/A,,Overcast,90,2012-11-05 09:55:00
4:15 AM,30.2,23.0,75,30.22,10.0,East,3.5,-,N/A,,Overcast,100,2012-11-05 10:15:00
4:35 AM,30.2,23.0,75,30.22,10.0,East,3.5,-,N/A,,Overcast,80,2012-11-05 10:35:00
4:55 AM,30.2,23.0,75,30.22,10.0,Calm,Calm,-,N/A,,Overcast,0,2012-11-05 10:55:00
5:15 AM,30.2,23.0,75,30.22,10.0,Calm,Calm,-,N/A,,Overcast,0,2012-11-05 11:15:00
5:35 AM,30.2,23.0,75,30.23,10.0,Calm,Calm,-,N/A,,Overcast,0,2012-11-05 11:35:00
5:55 AM,28.4,23.0,80,30.22,10.0,East,3.5,-,N/A,,Overcast,80,2012-11-05 11:55:00
6:35 AM,28.4,23.0,80,30.23,10.0,Calm,Calm,-,N/A,,Overcast,0,2012-11-05 12:35:00
6:55 AM,28.4,23.0,80,30.23,10.0,Calm,Calm,-,N/A,,Overcast,0,2012-11-05 12:55:00
7:15 AM,28.4,23.0,80,30.23,10.0,Calm,Calm,-,N/A,,Overcast,0,2012-11-05 13:15:00
7:35 AM,30.2,23.0,75,30.23,10.0,Calm,Calm,-,N/A,,Overcast,0,2012-11-05 13:35:00
7:55 AM,30.2,23.0,75,30.23,10.0,Calm,Calm,-,N/A,,Overcast,0,2012-11-05 13:55:00
8:15 AM,30.2,23.0,75,30.23,10.0,Calm,Calm,-,N/A,,Overcast,0,2012-11-05 14:15:00
8:35 AM,30.2,23.0,75,30.22,10.0,Calm,Calm,-,N/A,,Overcast,0,2012-11-05 14:35:00
8:55 AM,30.2,23.0,75,30.22,10.0,East,6.9,-,N/A,,Overcast,80,2012-11-05 14:55:00
9:35 AM,30.2,23.0,75,30.22,10.0,SE,3.5,-,N/A,,Overcast,140,2012-11-05 15:35:00
9:55 AM,30.2,23.0,75,30.23,10.0,SE,4.6,-,N/A,,Overcast,130,2012-11-05 15:55:00
10:15 AM,32.0,23.0,69,30.23,10.0,Calm,Calm,-,N/A,,Overcast,0,2012-11-05 16:15:00
10:35 AM,32.0,21.2,64,30.22,10.0,Calm,Calm,-,N/A,,Overcast,0,2012-11-05 16:35:00
10:55 AM,32.0,23.0,69,30.22,10.0,Calm,Calm,-,N/A,,Overcast,0,2012-11-05 16:55:00
11:35 AM,32.0,21.2,64,30.20,10.0,SSW,3.5,-,N/A,,Overcast,200,2012-11-05 17:35:00
11:55 AM,32.0,23.0,69,30.20,10.0,SE,5.8,-,N/A,,Overcast,130,2012-11-05 17:55:00
12:15 PM,32.0,21.2,64,30.19,10.0,Calm,Calm,-,N/A,,Mostly Cloudy,0,2012-11-05 18:15:00
12:35 PM,33.8,21.2,60,30.18,10.0,South,5.8,-,N/A,,Overcast,170,2012-11-05 18:35:00
12:55 PM,33.8,21.2,60,30.17,10.0,SSE,6.9,-,N/A,,Mostly Cloudy,150,2012-11-05 18:55:00
1:15 PM,33.8,23.0,65,30.16,10.0,ESE,3.5,-,N/A,,Scattered Clouds,110,2012-11-05 19:15:00
1:35 PM,33.8,21.2,60,30.15,10.0,SSW,4.6,-,N/A,,Scattered Clouds,210,2012-11-05 19:35:00
1:55 PM,35.6,23.0,60,30.14,10.0,South,3.5,-,N/A,,Clear,170,2012-11-05 19:55:00
2:35 PM,33.8,21.2,60,30.13,10.0,West,5.8,-,N/A,,Clear,260,2012-11-05 20:35:00
2:55 PM,33.8,21.2,60,30.13,10.0,West,4.6,-,N/A,,Clear,270,2012-11-05 20:55:00
3:15 PM,33.8,21.2,60,30.13,10.0,SW,5.8,-,N/A,,Clear,230,2012-11-05 21:15:00
3:35 PM,33.8,23.0,65,30.13,10.0,WSW,4.6,-,N/A,,Clear,250,2012-11-05 21:35:00
3:55 PM,32.0,23.0,69,30.13,10.0,WSW,3.5,-,N/A,,Clear,240,2012-11-05 21:55:00
4:15 PM,32.0,23.0,69,30.13,10.0,WSW,4.6,-,N/A,,Clear,250,2012-11-05 22:15:00
4:35 PM,32.0,23.0,69,30.12,10.0,Calm,Calm,-,N/A,,Clear,0,2012-11-05 22:35:00
4:55 PM,30.2,23.0,75,30.11,10.0,Calm,Calm,-,N/A,,Clear,0,2012-11-05 22:55:00
5:15 PM,28.4,23.0,80,30.11,10.0,Calm,Calm,-,N/A,,Clear,0,2012-11-05 23:15:00
5:35 PM,28.4,23.0,80,30.11,10.0,Calm,Calm,-,N/A,,Clear,0,2012-11-05 23:35:00
5:55 PM,26.6,21.2,80,30.11,10.0,Calm,Calm,-,N/A,,Clear,0,2012-11-05 23:55:00
6:15 PM,26.6,21.2,80,30.11,10.0,Calm,Calm,-,N/A,,Clear,0,2012-11-06 00:15:00
6:35 PM,24.8,21.2,86,30.11,10.0,Calm,Calm,-,N/A,,Clear,0,2012-11-06 00:35:00
6:55 PM,24.8,21.2,86,30.10,10.0,Calm,Calm,-,N/A,,Clear,0,2012-11-06 00:55:00
7:15 PM,26.6,21.2,80,30.10,10.0,Calm,Calm,-,N/A,,Clear,0,2012-11-06 01:15:00
7:35 PM,24.8,21.2,86,30.09,10.0,Calm,Calm,-,N/A,,Clear,0,2012-11-06 01:35:00
7:55 PM,26.6,21.2,80,30.07,10.0,South,3.5,-,N/A,,Clear,190,2012-11-06 01:55:00
8:15 PM,26.6,21.2,80,30.07,10.0,Calm,Calm,-,N/A,,Clear,0,2012-11-06 02:15:00
8:35 PM,26.6,21.2,80,30.07,10.0,Calm,Calm,-,N/A,,Clear,0,2012-11-06 02:35:00
8:55 PM,24.8,21.2,86,30.06,10.0,Calm,Calm,-,N/A,,Clear,0,2012-11-06 02:55:00
9:15 PM,23.0,21.2,93,30.06,10.0,Calm,Calm,-,N/A,,Clear,0,2012-11-06 03:15:00
9:35 PM,23.0,21.2,93,30.05,10.0,Calm,Calm,-,N/A,,Clear,0,2012-11-06 03:35:00
9:55 PM,23.0,21.2,93,30.04,10.0,Calm,Calm,-,N/A,,Clear,0,2012-11-06 03:55:00
10:15 PM,23.0,21.2,93,30.03,10.0,Calm,Calm,-,N/A,,Clear,0,2012-11-06 04:15:00
10:35 PM,23.0,21.2,93,30.03,10.0,Calm,Calm,-,N/A,,Clear,0,2012-11-06 04:35:00
10:55 PM,23.0,21.2,93,30.02,10.0,Calm,Calm,-,N/A,,Mostly Cloudy,0,2012-11-06 04:55:00
11:15 PM,26.6,23.0,86,30.02,10.0,Calm,Calm,-,N/A,,Overcast,0,2012-11-06 05:15:00
11:35 PM,26.6,23.0,86,30.02,10.0,Calm,Calm,-,N/A,,Overcast,0,2012-11-06 05:35:00
11:55 PM,28.4,23.0,80,30.01,10.0,South,4.6,-,N/A,,Overcast,180,2012-11-06 05:55:00